Retour au catalogue

JCSAT 13

ActifCommunicationsGEO
NORAD 38331·PAYLOAD·🇯🇵 Japan

Lancé May 15, 2012 depuis Guiana Space Centre

Loading…

TLE

FraisSource: Space-Track

Époque: Sep 14, 2026, 14:23 UTC

1 38331U 12023A   26257.59971444 -.00000364  00000-0  00000-0 0  9995
2 38331   0.0298 258.4414 0002367 262.5316 172.5174  1.00273374 52449

Suivez JCSAT 13 en temps réel avec AllMySat

Download on the App Store